EW1607 Weather Reports


time (UTC)temp
C
wind
direction
speed
KPH
gust
KPH
rain 1hr
cm
rain 24hr
cm
rain mn
cm
humidity
%
barometer
mb
20260509013259 13 200 1.6 4.8 0.00 0.00 0.00 72 1007.8
20260509012720 13 203 0.0 1.6 0.00 0.00 0.00 71 1007.7
20260509012144 13 203 0.0 3.2 0.00 0.00 0.00 71 1007.5
20260509011543 13 203 0.0 3.2 0.00 0.00 0.00 70 1007.5
20260509011253 14 203 0.0 1.6 0.00 0.00 0.00 69 1007.5
20260509010531 14 210 0.0 1.6 0.00 0.00 0.00 68 1007.5
20260509010017 14 209 1.6 3.2 0.00 0.00 0.00 68 1007.5
20260509005515 14 203 0.0 6.4 0.00 0.00 0.00 67 1007.5
20260509004957 15 210 0.0 6.4 0.00 0.00 0.00 67 1007.4
20260509004415 15 207 0.0 3.2 0.00 0.00 0.00 66 1007.3
20260509003907 15 205 0.0 6.4 0.00 0.00 0.00 65 1007.3
20260509003339 15 203 0.0 6.4 0.00 0.00 0.00 65 1007.3
20260509002810 15 214 1.6 6.4 0.00 0.00 0.00 64 1007.4
20260509002306 15 84 3.2 9.7 0.00 0.00 0.00 63 1007.4
20260509001746 15 206 1.6 9.7 0.00 0.00 0.00 63 1002.2
20260509001247 15 211 1.6 4.8 0.00 0.00 0.00 62 1007.3
20260509000720 16 205 1.6 4.8 0.00 0.00 0.00 61 1007.3
20260509000204 16 210 1.6 6.4 0.00 0.00 0.00 60 1007.4
20260508235703 16 214 1.6 6.4 0.00 0.00 0.00 59 1007.4
20260508235159 16 224 1.6 8.0 0.00 0.00 0.00 58 1007.3
20260508234653 16 214 1.6 8.0 0.00 0.00 0.00 57 1007.3
20260508234148 16 213 1.6 6.4 0.00 0.00 0.00 56 1007.4
20260508233622 16 210 1.6 6.4 0.00 0.00 0.00 54 1007.4
20260508233125 16 212 3.2 9.7 0.00 0.00 0.00 51 1007.4
20260508232608 16 206 3.2 9.7 0.00 0.00 0.00 50 1007.4
20260508232059 16 203 3.2 8.0 0.00 0.00 0.00 48 1007.4
20260508231541 16 205 1.6 6.4 0.00 0.00 0.00 47 1007.4
20260508231031 16 200 1.6 6.4 0.00 0.00 0.00 46 1007.4
20260508230524 17 193 1.6 6.4 0.00 0.00 0.00 45 1007.4
20260508230020 17 211 1.6 6.4 0.00 0.00 0.00 45 1007.4
20260508225520 17 262 1.6 6.4 0.00 0.00 0.00 46 1007.4
20260508225016 17 188 3.2 6.4 0.00 0.00 0.00 46 1007.4
20260508224516 17 203 3.2 8.0 0.00 0.00 0.00 46 1007.5
20260508224014 17 227 3.2 8.0 0.00 0.00 0.00 45 1007.5
20260508223517 17 205 1.6 8.0 0.00 0.00 0.00 47 1007.5
20260508222958 17 217 1.6 8.0 0.00 0.00 0.00 46 1007.5
20260508222452 17 205 3.2 6.4 0.00 0.00 0.00 45 1007.6
20260508221949 17 219 3.2 9.7 0.00 0.00 0.00 44 1007.6
20260508221443 17 193 3.2 9.7 0.00 0.00 0.00 44 1002.5
20260508221210 18 200 3.2 9.7 0.00 0.00 0.00 44 1007.8
20260508220416 18 223 3.2 9.7 0.00 0.00 0.00 45 1007.8
20260508215851 17 204 3.2 9.7 0.00 0.00 0.00 44 1007.7
20260508215348 17 212 3.2 8.0 0.00 0.00 0.00 43 1002.6
20260508214846 18 208 3.2 9.7 0.00 0.00 0.00 41 1007.8
20260508214334 18 191 3.2 9.7 0.00 0.00 0.00 40 1007.8
20260508214058 18 210 1.6 8.0 0.00 0.00 0.00 41 1007.8
20260508213312 17 108 1.6 4.8 0.00 0.00 0.00 40 1007.8
20260508212809 17 207 1.6 4.8 0.00 0.00 0.00 41 1007.9
20260508212306 17 199 1.6 8.0 0.00 0.00 0.00 39 1007.8
20260508212030 17 207 1.6 8.0 0.00 0.00 0.00 39 1002.7
20260508211239 17 200 1.6 6.4 0.00 0.00 0.00 38 1007.8
20260508210737 17 207 1.6 4.8 0.00 0.00 0.00 39 1007.9
20260508210234 18 238 1.6 8.0 0.00 0.00 0.00 43 1007.9
20260508205726 17 235 1.6 8.0 0.00 0.00 0.00 43 1007.9
20260508205226 17 221 1.6 4.8 0.00 0.00 0.00 44 1008.0
20260508204707 17 219 1.6 6.4 0.00 0.00 0.00 43 1008.2
20260508204145 18 207 3.2 11.3 0.00 0.00 0.00 41 1008.2
20260508203634 18 252 4.8 12.9 0.00 0.00 0.00 40 1008.2
20260508203133 18 214 4.8 12.9 0.00 0.00 0.00 40 1008.3
20260508202632 18 212 3.2 9.7 0.00 0.00 0.00 42 1008.2
20260508202130 18 77 3.2 12.9 0.00 0.00 0.00 44 1008.3
20260508201630 17 200 3.2 12.9 0.00 0.00 0.00 45 1008.5
20260508201127 17 237 1.6 4.8 0.00 0.00 0.00 44 1008.4
20260508200622 17 210 3.2 4.8 0.00 0.00 0.00 44 1008.6
20260508200117 17 205 3.2 8.0 0.00 0.00 0.00 43 1008.9
20260508195613 17 212 3.2 9.7 0.00 0.00 0.00 43 1009.1
20260508195039 17 209 3.2 12.9 0.00 0.00 0.00 43 1009.0
20260508194534 17 223 4.8 12.9 0.00 0.00 0.00 43 1009.1
20260508194034 17 201 4.8 11.3 0.00 0.00 0.00 42 1009.1
20260508193530 18 198 3.2 11.3 0.00 0.00 0.00 42 1009.4
20260508193313 18 228 3.2 9.7 0.00 0.00 0.00 42 1009.4
20260508192512 18 212 3.2 9.7 0.00 0.00 0.00 40 1009.3
20260508192005 18 193 3.2 9.7 0.00 0.00 0.00 39 1009.4
20260508191724 18 217 1.6 8.0 0.00 0.00 0.00 40 1009.5
20260508190937 18 270 3.2 11.3 0.00 0.00 0.00 38 1009.7
20260508190432 18 207 3.2 16.1 0.00 0.00 0.00 41 1009.7
20260508185923 18 77 3.2 12.9 0.00 0.00 0.00 39 1009.7
20260508185422 18 257 3.2 12.9 0.00 0.00 0.00 39 1009.9
20260508184926 18 198 3.2 12.9 0.00 0.00 0.00 38 1009.9
20260508184416 18 225 3.2 14.5 0.00 0.00 0.00 39 1010.0
20260508183916 18 285 3.2 14.5 0.00 0.00 0.00 40 1010.0
20260508183415 17 230 3.2 12.9 0.00 0.00 0.00 43 1010.0
20260508182834 17 212 4.8 12.9 0.00 0.00 0.00 43 1010.2
20260508182332 17 197 3.2 8.0 0.00 0.00 0.00 42 1010.2
20260508181829 17 210 3.2 9.7 0.00 0.00 0.00 43 1005.0
20260508181308 17 224 3.2 9.7 0.00 0.00 0.00 44 1010.2
20260508180808 16 221 1.6 9.7 0.00 0.00 0.00 47 1010.2
20260508180308 16 231 3.2 11.3 0.00 0.00 0.00 46 1010.2
20260508175752 16 218 3.2 11.3 0.00 0.00 0.00 45 1010.3
20260508175233 16 219 3.2 9.7 0.00 0.00 0.00 47 1010.4
20260508174738 16 18 4.8 12.9 0.00 0.00 0.00 45 1010.5
20260508174232 16 237 4.8 12.9 0.00 0.00 0.00 44 1010.8
20260508173727 17 195 1.6 9.7 0.00 0.00 0.00 42 1010.7
20260508173222 17 219 1.6 8.0 0.00 0.00 0.00 42 1010.8
20260508172718 16 213 3.2 9.7 0.00 0.00 0.00 43 1010.9
20260508172218 16 215 4.8 11.3 0.00 0.00 0.00 42 1011.0
20260508171953 17 217 3.2 11.3 0.00 0.00 0.00 41 1005.9
20260508171214 17 259 1.6 9.7 0.00 0.00 0.00 42 1011.1
20260508170711 17 51 1.6 9.7 0.00 0.00 0.00 43 1011.2
20260508170153 16 112 3.2 11.3 0.00 0.00 0.00 40 1011.3
20260508165650 16 196 4.8 11.3 0.00 0.00 0.00 39 1011.3
20260508165149 16 184 3.2 11.3 0.00 0.00 0.00 39 1011.4
20260508164921 16 212 1.6 11.3 0.00 0.00 0.00 39 1011.5
20260508164149 16 276 1.6 8.0 0.00 0.00 0.00 39 1011.7
20260508163644 16 245 1.6 11.3 0.00 0.00 0.00 43 1011.7
20260508163133 16 298 1.6 11.3 0.00 0.00 0.00 40 1011.7
20260508162631 16 266 1.6 9.7 0.00 0.00 0.00 41 1011.7
20260508162130 16 98 3.2 12.9 0.00 0.00 0.00 40 1011.8
20260508161619 16 91 3.2 12.9 0.00 0.00 0.00 41 1011.8
20260508161122 16 198 1.6 8.0 0.00 0.00 0.00 43 1011.9
20260508160602 16 76 1.6 8.0 0.00 0.00 0.00 43 1012.0
20260508160055 15 70 1.6 6.4 0.00 0.00 0.00 43 1011.9
20260508155547 15 79 1.6 6.4 0.00 0.00 0.00 46 1012.0
20260508155042 15 87 1.6 6.4 0.00 0.00 0.00 46 1011.9
20260508154549 15 231 3.2 9.7 0.00 0.00 0.00 46 1012.0
20260508154035 15 218 1.6 9.7 0.00 0.00 0.00 45 1011.9
20260508153533 15 266 1.6 3.2 0.00 0.00 0.00 47 1011.9
20260508152942 15 22 0.0 3.2 0.00 0.00 0.00 47 1011.9
20260508152442 15 221 1.6 4.8 0.00 0.00 0.00 48 1011.9
20260508151935 15 215 1.6 6.4 0.00 0.00 0.00 49 1012.0
20260508151427 15 217 1.6 6.4 0.00 0.00 0.00 50 1012.1
20260508150922 15 214 1.6 4.8 0.00 0.00 0.00 50 1012.2
20260508150417 15 65 0.0 6.4 0.00 0.00 0.00 53 1012.2
20260508145909 14 44 0.0 6.4 0.00 0.00 0.00 52 1012.2
20260508145644 14 262 1.6 4.8 0.00 0.00 0.00 51 1012.1
20260508145405 14 215 1.6 4.8 0.00 0.00 0.00 52 1012.1
20260508144623 13 212 1.6 4.8 0.00 0.00 0.00 52 1012.2
20260508143845 13 78 1.6 3.2 0.00 0.00 0.00 58 1012.3
20260508143344 13 208 0.0 6.4 0.00 0.00 0.00 57 1012.3
20260508142835 13 85 0.0 6.4 0.00 0.00 0.00 59 1012.3
20260508142601 13 49 0.0 3.2 0.00 0.00 0.00 62 1012.5
20260508142022 13 127 0.0 3.2 0.00 0.00 0.00 57 1012.5
20260508141249 13 357 1.6 3.2 0.00 0.00 0.00 58 1012.5
20260508141033 13 244 0.0 1.6 0.00 0.00 0.00 58 1012.6
20260508140219 13 66 0.0 1.6 0.00 0.00 0.00 62 1012.5
20260508135714 13 219 1.6 4.8 0.00 0.00 0.00 69 1012.4
20260508135214 13 127 0.0 4.8 0.00 0.00 0.00 65 1012.6
20260508134715 13 102 0.0 1.6 0.00 0.00 0.00 64 1012.6
20260508134431 13 23 0.0 1.6 0.00 0.00 0.00 71 1012.6
20260508133634 12 126 0.0 1.6 0.00 0.00 0.00 71 1012.5
20260508133120 11 213 1.6 3.2 0.00 0.00 0.00 71 1012.4
20260508132608 11 202 1.6 3.2 0.00 0.00 0.00 72 1012.4
20260508132153 10 72 1.6 4.8 0.00 0.00 0.00 75 1012.4
20260508131525 10 41 1.6 4.8 0.00 0.00 0.00 78 1012.5
20260508131009 10 56 1.6 3.2 0.00 0.00 0.00 75 1012.5
20260508130454 10 91 0.0 3.2 0.00 0.00 0.00 74 1012.4
20260508130215 11 56 0.0 1.6 0.00 0.00 0.00 74 1012.4
20260508125442 11 229 0.0 1.6 0.00 0.00 0.00 76 1012.5
20260508124933 10 205 0.0 1.6 0.00 0.00 0.00 77 1012.3
20260508124424 10 205 0.0 3.2 0.00 0.00 0.00 78 1012.3
20260508123905 9 204 0.0 3.2 0.00 0.00 0.00 79 1012.3
20260508123404 9 188 0.0 3.2 0.00 0.00 0.00 80 1012.3
20260508122843 9 75 0.0 3.2 0.00 0.00 0.00 79 1012.2
20260508122330 9 117 0.0 1.6 0.00 0.00 0.00 81 1012.2
20260508121826 9 200 0.0 0.0 0.00 0.00 0.00 80 1012.2
20260508121236 9 200 0.0 0.0 0.00 0.00 0.00 82 1012.2
20260508120741 9 200 0.0 0.0 0.00 0.00 0.00 84 1012.2
20260508120235 8 200 0.0 0.0 0.00 0.00 0.00 90 1012.0
20260508115720 7 200 0.0 0.0 0.00 0.00 0.00 92 1011.9
20260508115224 6 200 0.0 0.0 0.00 0.00 0.00 92 1011.8
20260508114858 6 200 0.0 0.0 0.00 0.00 0.00 95 1011.6
20260508114127 5 200 0.0 0.0 0.00 0.00 0.00 96 1011.3
20260508113622 4 200 0.0 0.0 0.00 0.00 0.00 96 1011.1
20260508113114 3 200 0.0 0.0 0.00 0.00 0.00 95 1011.2
20260508112603 3 200 0.0 0.0 0.00 0.00 0.00 95 1011.0
20260508112106 3 200 0.0 0.0 0.00 0.00 0.00 94 1010.9
20260508111543 3 200 0.0 0.0 0.00 0.00 0.00 94 1010.9
20260508111039 3 200 0.0 0.0 0.00 0.00 0.00 94 1010.9
20260508110525 3 200 0.0 0.0 0.00 0.00 0.00 94 1010.8
20260508110013 3 200 0.0 0.0 0.00 0.00 0.00 94 1010.7
20260508105438 3 200 0.0 0.0 0.00 0.00 0.00 94 1010.7
20260508105149 3 200 0.0 0.0 0.00 0.00 0.00 93 1010.7
20260508104406 3 200 0.0 0.0 0.00 0.00 0.00 93 1010.6
20260508104344 3 200 0.0 0.0 0.00 0.00 0.00 93 1010.7
20260508103338 3 200 0.0 0.0 0.00 0.00 0.00 93 1010.7
20260508102826 3 200 0.0 0.0 0.00 0.00 0.00 93 1010.7
20260508102324 3 200 0.0 0.0 0.00 0.00 0.00 93 1010.7
20260508102316 3 200 0.0 0.0 0.00 0.00 0.00 93 1010.7
20260508101243 3 200 0.0 0.0 0.00 0.00 0.00 92 1010.7
20260508100726 3 200 0.0 0.0 0.00 0.00 0.00 92 1010.6
20260508100658 4 200 0.0 0.0 0.00 0.00 0.00 91 1010.6
20260508095642 4 200 0.0 0.0 0.00 0.00 0.00 92 1010.6
20260508095133 4 200 0.0 0.0 0.00 0.00 0.00 92 1010.6
20260508094629 4 200 0.0 0.0 0.00 0.00 0.00 91 1010.7
20260508094125 4 200 0.0 0.0 0.00 0.00 0.00 90 1010.6
20260508093759 5 200 0.0 0.0 0.00 0.00 0.00 90 1010.8
20260508093012 5 200 0.0 0.0 0.00 0.00 0.00 90 1010.8
20260508092738 5 200 0.0 0.0 0.00 0.00 0.00 90 1010.7
20260508091927 5 200 0.0 0.0 0.00 0.00 0.00 90 1010.8
20260508091637 5 200 0.0 0.0 0.00 0.00 0.00 90 1010.8
20260508091108 5 200 0.0 0.0 0.00 0.00 0.00 89 1010.8
20260508090250 5 200 0.0 0.0 0.00 0.00 0.00 88 1010.7
20260508085723 5 200 0.0 0.0 0.00 0.00 0.00 88 1010.7
20260508085138 5 200 0.0 0.0 0.00 0.00 0.00 87 1010.8
20260508084611 6 200 0.0 0.0 0.00 0.00 0.00 87 1006.7
20260508084112 6 200 0.0 0.0 0.00 0.00 0.00 87 1010.8
20260508083613 6 200 0.0 0.0 0.00 0.00 0.00 87 1010.9
20260508083032 6 200 0.0 0.0 0.00 0.00 0.00 86 1010.9
20260508082729 6 200 0.0 0.0 0.00 0.00 0.00 86 1010.9
20260508081957 6 200 0.0 0.0 0.00 0.00 0.00 85 1006.8
20260508081450 6 200 0.0 0.0 0.00 0.00 0.00 85 1011.0
20260508080917 6 200 0.0 1.6 0.00 0.00 0.00 84 1011.1
20260508080405 7 200 0.0 1.6 0.00 0.00 0.00 84 1011.2
20260508075847 7 200 0.0 1.6 0.00 0.00 0.00 83 1011.2
20260508075337 7 123 0.0 1.6 0.00 0.00 0.00 83 1011.1
20260508074817 7 74 0.0 1.6 0.00 0.00 0.00 83 1011.2
20260508074548 7 222 0.0 1.6 0.00 0.00 0.00 83 1011.3
20260508073812 7 222 0.0 1.6 0.00 0.00 0.00 83 1011.3
20260508073303 7 212 0.0 1.6 0.00 0.00 0.00 83 1011.3
20260508072749 7 212 0.0 1.6 0.00 0.00 0.00 83 1011.4
20260508072209 7 212 0.0 1.6 0.00 0.00 0.00 84 1011.4
20260508071707 7 212 0.0 1.6 0.00 0.00 0.00 84 1007.1
20260508071206 6 255 0.0 1.6 0.00 0.00 0.00 84 1011.4
20260508070656 6 235 0.0 1.6 0.00 0.00 0.00 84 1011.3
20260508070146 6 227 0.0 1.6 0.00 0.00 0.00 84 1011.3
20260508065618 6 209 0.0 0.0 0.00 0.00 0.00 84 1011.3
20260508065053 6 209 0.0 1.6 0.00 0.00 0.00 84 1011.3
20260508064546 6 209 0.0 1.6 0.00 0.00 0.00 84 1011.4
20260508064033 6 209 0.0 3.2 0.00 0.00 0.00 84 1011.2
20260508063533 6 209 0.0 3.2 0.00 0.00 0.00 84 1011.3
20260508063039 6 210 0.0 1.6 0.00 0.00 0.00 86 1011.3
20260508063034 6 210 0.0 1.6 0.00 0.00 0.00 85 1011.3
20260508062009 6 210 0.0 1.6 0.00 0.00 0.00 86 1011.4
20260508061451 6 210 0.0 0.0 0.00 0.00 0.00 86 1011.4
20260508060848 6 210 0.0 0.0 0.00 0.00 0.00 85 1011.3
20260508060336 6 210 0.0 0.0 0.00 0.00 0.00 84 1011.3
20260508060051 6 210 0.0 0.0 0.00 0.00 0.00 84 1011.3
20260508055238 6 210 0.0 0.0 0.00 0.00 0.00 84 1011.3
20260508054940 6 210 0.0 0.0 0.00 0.00 0.00 83 1011.3
20260508054204 6 210 0.0 0.0 0.00 0.00 0.00 83 1011.4
20260508054142 6 210 0.0 0.0 0.00 0.00 0.00 83 1011.4
20260508053142 6 210 0.0 0.0 0.00 0.00 0.00 82 1011.5
20260508052603 6 210 0.0 1.6 0.00 0.00 0.00 82 1011.5
20260508052052 6 210 0.0 0.0 0.00 0.00 0.00 81 1011.5
20260508051546 6 210 0.0 0.0 0.00 0.00 0.00 81 1011.5
20260508051038 6 210 0.0 1.6 0.00 0.00 0.00 81 1011.4
20260508050455 7 210 0.0 1.6 0.00 0.00 0.00 81 1011.6
20260508045943 7 210 0.0 1.6 0.00 0.00 0.00 80 1011.7
20260508045442 7 210 0.0 0.0 0.00 0.00 0.00 78 1011.7
20260508044933 7 210 0.0 1.6 0.00 0.00 0.00 78 1011.7
20260508044426 7 210 0.0 1.6 0.00 0.00 0.00 77 1011.6
20260508043856 7 210 0.0 0.0 0.00 0.00 0.00 76 1011.6
20260508043331 8 210 0.0 0.0 0.00 0.00 0.00 76 1011.7
20260508042825 8 206 0.0 0.0 0.00 0.00 0.00 75 1011.6
20260508042310 8 206 0.0 1.6 0.00 0.00 0.00 74 1011.6
20260508041759 8 205 0.0 1.6 0.00 0.00 0.00 73 1011.5
20260508041244 8 207 0.0 1.6 0.00 0.00 0.00 73 1011.5
20260508041008 8 207 0.0 1.6 0.00 0.00 0.00 72 1011.5
20260508040219 8 207 1.6 1.6 0.00 0.00 0.00 71 1011.7
20260508035708 9 207 1.6 3.2 0.00 0.00 0.00 71 1011.6
20260508035656 9 207 0.0 3.2 0.00 0.00 0.00 70 1011.6
20260508034652 9 205 0.0 1.6 0.00 0.00 0.00 69 1011.7
20260508034130 9 205 1.6 3.2 0.00 0.00 0.00 68 1011.7
20260508033845 9 206 1.6 3.2 0.00 0.00 0.00 68 1011.7
20260508033313 9 205 0.0 1.6 0.00 0.00 0.00 68 1011.8
20260508032523 9 212 0.0 1.6 0.00 0.00 0.00 68 1011.8
20260508032041 9 212 0.0 1.6 0.00 0.00 0.00 67 1011.9
20260508032035 9 212 0.0 1.6 0.00 0.00 0.00 67 1011.8
20260508031000 9 206 0.0 0.0 0.00 0.00 0.00 66 1011.9
20260508030955 9 212 0.0 1.6 0.00 0.00 0.00 67 1011.8
20260508025939 9 205 0.0 1.6 0.00 0.00 0.00 67 1012.2
20260508025425 9 205 0.0 3.2 0.00 0.00 0.00 67 1012.3
20260508024920 9 209 0.0 3.2 0.00 0.00 0.00 67 1012.2
20260508024421 9 212 0.0 1.6 0.00 0.00 0.00 67 1012.1
20260508023838 9 210 0.0 0.0 0.00 0.00 0.00 68 1012.1
20260508023326 10 210 0.0 0.0 0.00 0.00 0.00 66 1012.1
20260508022822 10 200 0.0 1.6 0.00 0.00 0.00 65 1011.9
20260508022311 10 234 0.0 1.6 0.00 0.00 0.00 64 1011.9
20260508021808 10 212 0.0 1.6 0.00 0.00 0.00 63 1012.0
20260508021250 10 217 0.0 1.6 0.00 0.00 0.00 63 1012.1
20260508020752 10 214 0.0 1.6 0.00 0.00 0.00 60 1012.1
20260508015640 10 230 0.0 1.6 0.00 0.00 0.00 56 1012.3
20260508014819 10 191 0.0 3.2 0.00 0.00 0.00 56 1012.2
20260508014305 10 224 0.0 3.2 0.00 0.00 0.00 55 1012.1
20260508013755 10 236 0.0 1.6 0.00 0.00 0.00 56 1012.0